Asheville, NC

9:50 PM EDT on April 24, 2018 (GMT -0400)
Asheville Regional

Weather History for KAVL - September, 2011

Change the Weather History Date:

Saturday, September 17, 2011

  Actual Average Record
Temperature  
Mean Temperature 59 °F 66 °F  
Max Temperature 68 °F 77 °F 90 °F (1927)
Min Temperature 49 °F 55 °F 38 °F (2000)
Degree Days  
Heating Degree Days 6 2  
Month to date heating degree days 19 11  
Since 1 July heating degree days 19 13  
Cooling Degree Days 0 3  
Month to date cooling degree days 67 73  
Year to date cooling degree days 1162 830  
Growing Degree Days 9 (Base 50)    
Moisture  
Dew Point 49 °F    
Average Humidity 73    
Maximum Humidity 86    
Minimum Humidity 59    
Precipitation  
Precipitation T in 0.12 in 1.92 in (2004)
Month to date precipitation 1.89 2.25  
Year to date precipitation 31.37 33.86  
Snow  
Snow 0.00 in 0.00 in 0.00 in ()
Month to date snowfall 0.0 0.0  
Since 1 July snowfall 0.0 0.0  
Since 1 September snowfall 0.0 0.0  
Snow Depth 0.00 in    
Sea Level Pressure  
Sea Level Pressure 30.28 in    
Wind  
Wind Speed 3 mph (SSE)    
Max Wind Speed 14 mph    
Max Gust Speed 17 mph    
Visibility 10 miles    
Events Rain    
T = Trace of Precipitation, MM = Missing Value Source: NWS Daily Summary

Daily Weather History Graph

Daily Weather History Graph

Search for Another Location

Airport or City:

Astronomy

Sep. 17, 2011 Rise Set
Actual Time 7:14 AM EDT 7:34 PM EDT
Civil Twilight 6:48 AM EDT 8:00 PM EDT
Nautical Twilight 6:18 AM EDT 8:29 PM EDT
Astronomical Twilight 5:48 AM EDT 9:00 PM EDT
Moon 10:17 PM EDT (9/17) 12:01 PM EDT (9/17)
Length of Visible Light 13h 11m
Length of Day
12h 20m
Waning Gibbous, 77% of the Moon is Illuminated
Sep 17
Waning Gibbous
Sep 20
Last Quarter
Sep 27
New
Oct 3
First Quarter
Oct 11
Full

Hourly Weather History & Observations

Time (EDT) Temp. Dew Point Humidity Pressure Visibility Wind Dir Wind Speed Gust Speed Precip Events Conditions
12:54 AM 50.0 °F 45.0 °F 83% 30.30 in 10.0 mi SW 3.5 mph - N/A   Overcast
1:54 AM 50.0 °F 45.0 °F 83% 30.29 in 10.0 mi SSW 3.5 mph - N/A   Overcast
2:54 AM 50.0 °F 45.0 °F 83% 30.27 in 10.0 mi Calm Calm - N/A   Overcast
3:54 AM 50.0 °F 45.0 °F 83% 30.27 in 10.0 mi South 5.8 mph - N/A   Overcast
4:04 AM 50.0 °F 44.6 °F 82% 30.29 in 10.0 mi South 5.8 mph - N/A   Overcast
4:54 AM 50.0 °F 45.0 °F 83% 30.26 in 10.0 mi Calm Calm - N/A   Overcast
5:20 AM 50.0 °F 44.6 °F 82% 30.28 in 10.0 mi South 3.5 mph - N/A   Overcast
5:54 AM 50.0 °F 45.0 °F 83% 30.26 in 10.0 mi South 3.5 mph - N/A   Overcast
6:54 AM 50.0 °F 46.4 °F 87% 30.30 in 10.0 mi Calm Calm - N/A   Overcast
7:46 AM 50.0 °F 46.4 °F 87% 30.31 in 10.0 mi Calm Calm - N/A   Overcast
7:54 AM 50.0 °F 46.0 °F 86% 30.29 in 10.0 mi Calm Calm - N/A   Overcast
8:09 AM 51.8 °F 46.4 °F 82% 30.31 in 10.0 mi Calm Calm - N/A   Overcast
8:54 AM 51.8 °F 46.4 °F 82% 30.32 in 10.0 mi Calm Calm - N/A   Overcast
9:54 AM 53.1 °F 46.9 °F 80% 30.31 in 10.0 mi North 3.5 mph - 0.00 in Rain Light Rain
10:25 AM 53.6 °F 46.4 °F 77% 30.34 in 10.0 mi Calm Calm - 0.00 in   Overcast
10:54 AM 55.0 °F 46.9 °F 74% 30.32 in 10.0 mi Calm Calm - 0.00 in   Overcast
11:54 AM 59.0 °F 48.9 °F 69% 30.32 in 10.0 mi Calm Calm - N/A   Overcast
12:54 PM 59.0 °F 51.1 °F 75% 30.30 in 10.0 mi South 4.6 mph - N/A   Overcast
1:54 PM 62.6 °F 51.8 °F 68% 30.31 in 10.0 mi Variable 3.5 mph - N/A   Overcast
2:54 PM 64.9 °F 53.1 °F 65% 30.25 in 10.0 mi Calm Calm - N/A   Overcast
3:18 PM 66.2 °F 53.6 °F 64% 30.27 in 10.0 mi Calm Calm - N/A   Partly Cloudy
3:54 PM 68.0 °F 53.1 °F 59% 30.22 in 10.0 mi Variable 4.6 mph - N/A   Clear
4:54 PM 66.9 °F 54.0 °F 63% 30.21 in 10.0 mi South 8.1 mph - N/A   Partly Cloudy
5:54 PM 64.9 °F 54.0 °F 68% 30.22 in 10.0 mi SSE 13.8 mph 17.3 mph N/A   Clear
6:54 PM 62.1 °F 53.1 °F 72% 30.24 in 10.0 mi SE 4.6 mph - N/A   Partly Cloudy
7:46 PM 60.8 °F 53.6 °F 77% 30.29 in 10.0 mi Calm Calm - N/A   Mostly Cloudy
7:54 PM 60.1 °F 53.1 °F 78% 30.26 in 10.0 mi ESE 3.5 mph - N/A   Mostly Cloudy
8:54 PM 59.0 °F 52.0 °F 78% 30.28 in 10.0 mi ESE 4.6 mph - N/A   Overcast
9:54 PM 59.0 °F 52.0 °F 78% 30.29 in 10.0 mi ESE 4.6 mph - N/A   Overcast
10:54 PM 57.9 °F 51.1 °F 78% 30.30 in 10.0 mi ESE 3.5 mph - N/A   Overcast
11:54 PM 57.9 °F 52.0 °F 81% 30.30 in 10.0 mi Calm Calm - N/A   Overcast